(498851) = 2008 XK21

Discovered at Kitt Peak on 2008-12-01 by Spacewatch.

Orbit

Orbit type: Main Belt

Note: WebGL enabled browser required.

epoch2024-03-31.0
epoch JD2460400.5
perihelion date2023-02-06.62541
perihelion JD2459982.12541
argument of perihelion (°)298.59243
ascending node (°)118.50160
inclination (°)3.07531
eccentricity0.0602281
perihelion distance (AU)2.7039155
Tisserand w.r.t. Jupiter3.3
ΔV w.r.t. Earth (km/sec)10.3
semimajor axis (AU)2.8772041
mean anomaly (°)84.49152
mean daily motion (°/day)0.20195190
aphelion distance (AU)3.050
period (years)4.88
P-vector [x]0.54215070
P-vector [y]0.78846826
P-vector [z]0.29050029
Q-vector [x]-0.83895758
Q-vector [y]0.48852194
Q-vector [z]0.23978425
absolute magnitude17.09
phase slope0.15
uncertainty0
referenceMPEC 2024-E179
observations used198
oppositions12
arc length (days)5992
first opposition used2007
last opposition used2024
residual rms (arc-secs)0.76
perturbers coarse indicatorM-v
perturbers precise indicator003Ek
first observation date used2007-10-15.0
last observation date used2024-03-11.0
computer nameMPCLINUX
JD of orbit computation2458024.113742
perihelion JD uncertainty (days)3.5395E-04
argument of perihelion uncertainty (°)1.2622E-04
ascending node uncertainty (°)1.0113E-04
inclination uncertainty (°)6.7894E-06
eccentricity uncertainty 7.6439E-08
perihelion distance uncertainty (AU)2.4279E-07
Minimum Orbit Intersection Distances (in AU)
for orbit epoch: 2460400.5, reference: E2024-D64
Mercury2.39004
Venus1.98215
Earth1.71781
Mars1.15218
Jupiter2.15553
Saturn6.30193
Uranus15.5
Neptune27.0976

Observations

204 total observations over interval: 2007 10 15.21942 – 2024 03 11.276222
These data are available for download (format description).

Date (UT) J2000 RA J2000 Dec Magn Location Ref
2007 10 15.21942 23 36 53.53 -06 57 31.5 21.1 V G96 – Mt. Lemmon Survey MPS 495309
2007 10 15.22788 23 36 53.28 -06 57 33.3 21.3 V G96 – Mt. Lemmon Survey MPS 495309
2007 10 15.23648 23 36 52.95 -06 57 34.9 21.2 V G96 – Mt. Lemmon Survey MPS 495309
2007 10 15.24490 23 36 52.70 -06 57 36.3 21.2 V G96 – Mt. Lemmon Survey MPS 495309
2008 12 01.45371 07 18 38.04 +20 25 57.1 21.3 V 691 – Steward Observatory, Kitt Peak-Spacewatch MPS 269378
2008 12 01.47135 07 18 37.56 +20 25 57.9 21.7 V 691 – Steward Observatory, Kitt Peak-Spacewatch MPS 269378
2008 12 01.48899 07 18 37.11 +20 26 00.1 21.6 V 691 – Steward Observatory, Kitt Peak-Spacewatch MPS 269378
2008 12 05.44576 07 16 42.65 +20 31 40.9 21.3 V 691 – Steward Observatory, Kitt Peak-Spacewatch MPS 269378
2008 12 05.46346 07 16 42.05 +20 31 42.5 21.1 V 691 – Steward Observatory, Kitt Peak-Spacewatch MPS 269378
2008 12 05.48116 07 16 41.46 +20 31 44.3 21.1 V 691 – Steward Observatory, Kitt Peak-Spacewatch MPS 269378
2008 12 21.24557 07 05 28.73 +21 02 17.8 20.9 V 691 – Steward Observatory, Kitt Peak-Spacewatch MPS 272792
2008 12 21.26370 07 05 27.75 +21 02 20.7 21.2 V 691 – Steward Observatory, Kitt Peak-Spacewatch MPS 272792
2008 12 21.28528 07 05 26.57 +21 02 23.3 21.2 V 691 – Steward Observatory, Kitt Peak-Spacewatch MPS 272792
2009 01 15.13839 06 42 31.16 +21 58 42.6 21.0 V 691 – Steward Observatory, Kitt Peak-Spacewatch MPS 272792
2009 01 15.15476 06 42 30.21 +21 58 43.9 20.6 V 691 – Steward Observatory, Kitt Peak-Spacewatch MPS 272792
2009 01 15.17113 06 42 29.32 +21 58 47.7 20.7 V 691 – Steward Observatory, Kitt Peak-Spacewatch MPS 272792
2009 01 18.11112 06 40 00.92 +22 04 47.8   691 – Steward Observatory, Kitt Peak-Spacewatch MPS 272792
2009 01 18.13324 06 39 59.82 +22 04 50.3   691 – Steward Observatory, Kitt Peak-Spacewatch MPS 272792
2009 01 18.15511 06 39 58.71 +22 04 53.6   691 – Steward Observatory, Kitt Peak-Spacewatch MPS 272792
2010 04 10.33358 13 00 27.21 -01 34 19.3 21.2 V G96 – Mt. Lemmon Survey MPS 495309
2010 04 10.34012 13 00 26.92 -01 34 17.4 21.2 V G96 – Mt. Lemmon Survey MPS 495309
2010 04 10.34670 13 00 26.56 -01 34 15.4 21.6 V G96 – Mt. Lemmon Survey MPS 495309
2010 04 10.35336 13 00 26.28 -01 34 13.2 21.2 V G96 – Mt. Lemmon Survey MPS 495309
2012 10 14.39411 00 28 30.21 -01 51 58.4 20.8 V G96 – Mt. Lemmon Survey MPS 495309
2012 10 14.40178 00 28 29.85 -01 52 00.8 21.2 V G96 – Mt. Lemmon Survey MPS 495309
2012 10 14.40943 00 28 29.49 -01 52 02.3 20.7 V G96 – Mt. Lemmon Survey MPS 495309
2013 12 23.39400 08 06 01.57 +19 34 24.7 20.8 V G96 – Mt. Lemmon Survey MPS 495309
2013 12 23.40168 08 06 01.27 +19 34 26.2 21.5 V G96 – Mt. Lemmon Survey MPS 495309
2013 12 23.40932 08 06 00.96 +19 34 27.5 21.0 V G96 – Mt. Lemmon Survey MPS 495309
2013 12 31.54023 08 00 04.120 +19 59 49.37 21.0 w F51 – Pan-STARRS 1, Haleakala MPS 495309
2013 12 31.55612 08 00 03.352 +19 59 52.49 20.9 w F51 – Pan-STARRS 1, Haleakala MPS 495309
2014 01 02.24271 07 58 40.71 +20 05 30.7 21.4 V 691 – Steward Observatory, Kitt Peak-Spacewatch MPS 495309
2014 01 02.26046 07 58 39.79 +20 05 34.9 21.2 V 691 – Steward Observatory, Kitt Peak-Spacewatch MPS 495309
2014 01 02.27820 07 58 38.90 +20 05 38.4 21.3 V 691 – Steward Observatory, Kitt Peak-Spacewatch MPS 495309
2014 01 09.18755 07 52 36.69 +20 29 35.6 21.2 V 691 – Steward Observatory, Kitt Peak-Spacewatch MPS 495309
2014 01 09.20529 07 52 35.77 +20 29 39.1 20.5 V 691 – Steward Observatory, Kitt Peak-Spacewatch MPS 495309
2014 01 09.22303 07 52 34.72 +20 29 42.8 20.4 V 691 – Steward Observatory, Kitt Peak-Spacewatch MPS 495309
2014 01 21.31116 07 41 26.01 +21 11 30.2 21.3 V G96 – Mt. Lemmon Survey MPS 497044
2014 01 21.31672 07 41 25.71 +21 11 31.3 20.8 V G96 – Mt. Lemmon Survey MPS 497044
2014 01 21.32228 07 41 25.39 +21 11 32.0 20.3 V G96 – Mt. Lemmon Survey MPS 497044
2014 01 21.32784 07 41 25.05 +21 11 33.2 20.6 V G96 – Mt. Lemmon Survey MPS 497044
2014 01 26.29634 07 37 00.480 +21 27 31.07 20.9 w F51 – Pan-STARRS 1, Haleakala MPS 498483
2014 01 26.30838 07 36 59.842 +21 27 33.76 20.9 w F51 – Pan-STARRS 1, Haleakala MPS 498483
2014 01 26.33774 07 36 58.268 +21 27 39.20 21.0 w F51 – Pan-STARRS 1, Haleakala MPS 498483
2015 04 20.38251 13 36 56.461 -05 09 46.06 21.3 w F51 – Pan-STARRS 1, Haleakala MPS 600728
2015 04 20.39606 13 36 55.793 -05 09 42.42 21.2 w F51 – Pan-STARRS 1, Haleakala MPS 600728
2015 04 20.40955 13 36 55.128 -05 09 38.42 21.3 w F51 – Pan-STARRS 1, Haleakala MPS 600728
2015 04 20.42299 13 36 54.477 -05 09 35.09 21.3 w F51 – Pan-STARRS 1, Haleakala MPS 600728
2017 09 17.48179 01 43 02.112 +05 52 48.49 21.3 w F51 – Pan-STARRS 1, Haleakala MPS 817031
2017 09 17.49384 01 43 01.752 +05 52 45.61 21.2 w F51 – Pan-STARRS 1, Haleakala MPS 817031
2017 09 17.50596 01 43 01.395 +05 52 42.76 21.1 w F51 – Pan-STARRS 1, Haleakala MPS 817031
2017 09 17.51808 01 43 01.037 +05 52 39.82 21.1 w F51 – Pan-STARRS 1, Haleakala MPS 817031
2017 09 24.41789 01 39 19.279 +05 22 51.31 21.0 w F51 – Pan-STARRS 1, Haleakala MPS 819066
2017 09 24.43061 01 39 18.792 +05 22 47.86 21.1 w F51 – Pan-STARRS 1, Haleakala MPS 819066
2017 09 24.45594 01 39 17.833 +05 22 40.78 21.2 w F51 – Pan-STARRS 1, Haleakala MPS 819066
2017 09 27.28902 01 37 31.22 +05 09 21.4 21.0 V G96 – Mt. Lemmon Survey MPS 819066
2017 09 27.29421 01 37 31.00 +05 09 20.2 21.3 V G96 – Mt. Lemmon Survey MPS 819066
2017 09 27.29944 01 37 30.84 +05 09 18.3 21.7 V G96 – Mt. Lemmon Survey MPS 819066
2017 09 27.30479 01 37 30.59 +05 09 16.9 20.8 V G96 – Mt. Lemmon Survey MPS 819066
2017 10 11.41171 01 27 06.055 +03 58 33.20 20.5 i F51 – Pan-STARRS 1, Haleakala MPS 826204
2017 10 11.42348 01 27 05.464 +03 58 29.36 20.6 i F51 – Pan-STARRS 1, Haleakala MPS 826204
2017 10 11.43528 01 27 04.876 +03 58 25.94 20.4 i F51 – Pan-STARRS 1, Haleakala MPS 826204
2017 10 11.44712 01 27 04.286 +03 58 22.43 20.6 i F51 – Pan-STARRS 1, Haleakala MPS 826204
2017 10 16.28122 01 23 11.23 +03 34 16.1 20.5 G G96 – Mt. Lemmon Survey MPS 871581
2017 10 16.28643 01 23 10.90 +03 34 14.4 19.9 G G96 – Mt. Lemmon Survey MPS 871581
2017 10 16.29163 01 23 10.69 +03 34 13.1 19.8 G G96 – Mt. Lemmon Survey MPS 871581
2017 10 16.29681 01 23 10.42 +03 34 11.6   G96 – Mt. Lemmon Survey MPS 871581
2017 10 19.40173 01 20 40.804 +03 19 18.93 20.6 w F51 – Pan-STARRS 1, Haleakala MPS 828126
2017 10 19.41299 01 20 40.239 +03 19 15.83 20.6 w F51 – Pan-STARRS 1, Haleakala MPS 828126
2017 10 19.42430 01 20 39.675 +03 19 12.87 20.6 w F51 – Pan-STARRS 1, Haleakala MPS 828126
2017 10 20.38593 01 19 53.52 +03 14 43.0 20.8 G G96 – Mt. Lemmon Survey MPS 828126
2017 10 20.39313 01 19 53.19 +03 14 40.8 20.4 G G96 – Mt. Lemmon Survey MPS 828126
2017 10 20.40032 01 19 52.82 +03 14 38.1 21.0 G G96 – Mt. Lemmon Survey MPS 828126
2017 10 20.40757 01 19 52.48 +03 14 36.9 20.9 G G96 – Mt. Lemmon Survey MPS 828126
2017 10 24.25157 01 16 52.11 +02 57 28.2 20.8 G G96 – Mt. Lemmon Survey MPS 831706
2017 10 24.25675 01 16 51.83 +02 57 26.1 20.2 G G96 – Mt. Lemmon Survey MPS 831706
2017 10 24.26198 01 16 51.61 +02 57 24.9   G96 – Mt. Lemmon Survey MPS 831706
2017 10 24.26720 01 16 51.35 +02 57 23.6 20.5 G G96 – Mt. Lemmon Survey MPS 831706
2019 01 02.57523 08 57 26.340 +17 28 18.83 21.1 w F51 – Pan-STARRS 1, Haleakala MPS 967110
2019 01 02.58703 08 57 25.927 +17 28 21.47 21.2 w F51 – Pan-STARRS 1, Haleakala MPS 967110
2019 01 02.59883 08 57 25.477 +17 28 23.85 21.1 w F51 – Pan-STARRS 1, Haleakala MPS 967110
2019 01 02.61102 08 57 25.031 +17 28 26.34 21.1 w F51 – Pan-STARRS 1, Haleakala MPS 967110
2019 01 08.39786 08 53 41.00 +17 50 15.8 21.4 G G96 – Mt. Lemmon Survey MPS 967110
2019 01 08.40301 08 53 40.75 +17 50 17.1 21.0 G G96 – Mt. Lemmon Survey MPS 967110
2019 01 08.40818 08 53 40.53 +17 50 18.1 20.6 G G96 – Mt. Lemmon Survey MPS 967110
2019 01 08.41334 08 53 40.30 +17 50 20.1 21.2 G G96 – Mt. Lemmon Survey MPS 967110
2019 01 09.41419 08 52 57.688 +17 54 22.13 21.0 w F51 – Pan-STARRS 1, Haleakala MPS 967110
2019 01 09.42685 08 52 57.117 +17 54 25.28 20.9 w F51 – Pan-STARRS 1, Haleakala MPS 967110
2019 01 09.43964 08 52 56.544 +17 54 28.50 21.0 w F51 – Pan-STARRS 1, Haleakala MPS 967110
2019 01 13.55838 08 49 49.084 +18 11 40.61 20.8 w F51 – Pan-STARRS 1, Haleakala MPS 1372053
